Flag for United Kingdom Weather past 2 weeks in Cheltenham, England, United Kingdom

Now
45 °F

Passing clouds.


Feels Like: 41 °F
Forecast: N/A
Wind: 6 mph from Southwest

Location: Staverton Private

Current Time: Jan 27, 2015 at 6:56:47 PM

Latest Report: Jan 27, 2015 at 6:20 PM


Visibility: N/A

Pressure: 30.24 "Hg

Humidity: 76%

Dew point: 37 °F

Location of CheltenhamLocation

Historic Weather in Cheltenham — Graph

°F

Cheltenham temperature yesterday

Maximum temperature yesterday: 48 °F (at 7:20 AM)
Minimum temperature yesterday: 39 °F (at 6:50 PM)
Average temperature yesterday: 46 °F

Past Weeks' High & Low Weather Summary

 TemperatureHumidityPressure
High48 °F (Jan 25, 2:20 PM)100% (Jan 12, 5:20 PM)30.45 "Hg (Jan 12, 5:20 PM)
Low27 °F (Jan 23, 6:20 AM)62% (Jan 24, 1:20 PM)29.09 "Hg (Jan 15, 6:50 AM)
Average40 °F85%29.92 "Hg
* Reported Jan 12 5:20 PM — Jan 27 5:50 PM, Cheltenham, Weather by CustomWeather, © 2014

Note: Actual official high and low records may vary slightly from our data, if they occured in-between our weather recording intervals... More about our weather records

Advertising

Cheltenham weather history for previous 24 hours

 ConditionsComfort  
Time TempWeatherWind HumidityBarometerVisibility
5:50 PM
Jan 27
45 °FPassing clouds.5 mph81%30.24 "HgN/A
5:20 PM45 °FPassing clouds.5 mph81%30.24 "HgN/A
4:50 PM45 °FPassing clouds.5 mph81%30.24 "HgN/A
4:20 PM46 °FScattered clouds.5 mph76%30.27 "HgN/A
3:50 PM46 °FScattered clouds.6 mph76%30.27 "HgN/A
3:20 PM46 °FScattered clouds.6 mph76%30.27 "HgN/A
2:50 PM48 °FScattered clouds.6 mph71%30.27 "HgN/A
2:20 PM48 °FScattered clouds.5 mph76%30.30 "HgN/A
1:50 PM48 °FScattered clouds.5 mph71%30.30 "HgN/A
1:20 PM46 °FScattered clouds.8 mph82%30.33 "HgN/A
12:50 PM48 °FScattered clouds.6 mph76%30.33 "HgN/A
12:20 PM46 °FScattered clouds.3 mph82%30.33 "HgN/A
11:50 AM46 °FPassing clouds.5 mph82%30.36 "HgN/A
11:20 AM46 °FPassing clouds.6 mph82%30.36 "HgN/A
10:50 AM45 °FSunny.6 mph87%30.36 "Hg10 mi
10:20 AM45 °FSunny.6 mph87%30.36 "Hg10 mi
9:50 AM43 °FPassing clouds.7 mph87%30.36 "HgN/A
9:20 AM43 °FPassing clouds.6 mph87%30.36 "HgN/A
8:50 AM43 °FPassing clouds.8 mph87%30.36 "HgN/A
8:20 AM43 °FPassing clouds.7 mph87%30.36 "HgN/A
7:50 AM41 °FPassing clouds.5 mph93%30.36 "HgN/A
7:20 AM41 °FClear.3 mph93%30.36 "Hg10 mi
6:50 AM41 °FClear.3 mph87%30.36 "Hg10 mi
6:50 PM
Jan 26
39 °FPassing clouds.3 mph87%30.36 "HgN/A
6:20 PM41 °FPassing clouds.2 mph81%30.33 "HgN/A
Weather by CustomWeather, © 2014

See weather overviewHow to use our weather pages